sat.trackr.live / text

‹ back to catalog

STARLINK-31208

NORAD 59037 · 2024-038Q

PAYLOAD ACTIVE UNKNOWN

§ Identity

Operator
Country
US
Launch date
2024-02-25
Launch site
AFETR
Launch vehicle
Mass (kg)
RCS (m²)

Purposes: comms

External: N2YO · Heavens-Above · Gunter

§ Orbital elements

Epoch: 2026-05-25T04:49:03.579168Z

Period
94.27 min
Inclination
43.0035°
Eccentricity
0.0001679
Mean motion
15.27587195 rev/d
Perigee alt
481.9 km
Apogee alt
484.2 km
Semi-major
6,861.2 km
B*
2.3620e-4
RAAN
315.4035°
Arg perigee
275.7398°
Mean anomaly
84.3262°
Rev number
12,651

§ Raw data

STARLINK-312081 59037U 24038Q   26145.20073587  .00006244  00000+0  23620-3 0  99922 59037  43.0035 315.4035 0001679 275.7398  84.3262 15.27587195126516

JSON: /api/v1/satellites/59037 · /tle

For live sub-satellite position, see the globe view (requires WebGL).

§ Visibility from observer

Set your observer location to see the next 7 days of passes ≥ 10°. The values pass through the URL so the page stays shareable.

No JS? Fill the form by hand. The geolocation button needs JavaScript.